Regional Weather Roundup
Issued by NWS

Home | Current Version | Previous Version | Text Only | Print | Product List | Glossary On
Versions: 1 2 3 4 5 6 7 8 9 10 11 12 13 14 15 16 17 18 19 20 21 22 23 24 25 26 27 28 29 30 31 32 33 34 35 36 37 38 39 40 41 42 43 44 45 46 47 48 49 50
000
ASCA44 KEWX 030620
RWRMX

LATIN AMERICA AND CARIBBEAN REGIONAL WEATHER ROUNDUP
NATIONAL WEATHER SERVICE AUSTIN/SAN ANTONIO TX
100 AM CDT WED SEP 03 2014

NOTE: "FAIR" INDICATED FEW OR NO CLOUDS BELOW 12,000 FEET WITH NO
SIGNIFICANT WEATHER AND/OR OBSTRUCTIONS TO VISIBILITY.

BAJA CALIFORNIA

CITY           SKY/WX    TMP DP  RH WIND       PRES   REMARKS
LA PAZ           N/A    N/A N/A N/A MISG        N/A
TIJUANA        CLOUDY    68  61  77 CALM      29.85S

NORTHWESTERN MEXICO

CITY           SKY/WX    TMP DP  RH WIND       PRES   REMARKS
CULIACAN       CLOUDY    84  77  79 NE6       29.78  HX  94
DURANGO        PTCLDY    63  52  67 NW2       30.12S

NORTHEASTERN MEXICO

CITY           SKY/WX    TMP DP  RH WIND       PRES   REMARKS
CHIHUAHUA      MOCLDY    72  50  46 S7        30.02
MONTERREY      RAIN      75  72  88 E14       29.92S
CD. VICTORIA   MOCLDY    75  75 100 NW7       29.85

WESTERN MEXICO

CITY           SKY/WX    TMP DP  RH WIND       PRES   REMARKS
DEL BAJIO      CLOUDY    59  57  94 CALM      30.18F
GUADALAJARA    PTCLDY    63  57  82 CALM      30.08
MAZATLAN       LGT RAIN  77  75  94 NW7       29.76R

CENTRAL MEXICO

CITY           SKY/WX    TMP DP  RH WIND       PRES   REMARKS
MEXICO CITY    MOCLDY    59  54  82 CALM      30.23F
MORELIA        MOCLDY    63  59  88 SW9       30.14
QUERETARO      MOCLDY    61  57  88 NW5       30.19F
S. LUIS POTOSI PTCLDY    66  55  68 SE5       30.12F
TOLUCA         CLOUDY    54  46  76 CALM      30.31F

SOUTHERN MEXICO

CITY           SKY/WX    TMP DP  RH WIND       PRES   REMARKS
ACAPULCO       MOCLDY    81  73  78 W6        29.86F

YUCATAN PENINSULA

CITY           SKY/WX    TMP DP  RH WIND       PRES   REMARKS
CANCUN         PTCLDY    79  77  94 CALM      29.93F
MERIDA         CLEAR     79  73  83 E10       29.91F
TAPACHULA      MOCLDY    81  75  83 CALM      29.90F

CENTRAL AMERICA

CITY           SKY/WX    TMP DP  RH WIND       PRES   REMARKS

CARIBBEAN

CITY           SKY/WX    TMP DP  RH WIND       PRES   REMARKS
ARUBA          PTCLDY    84  75  74 E24       29.80F HX  92
KINGSTON       PTCLDY    84  75  74 SE12      29.89F HX  92
NASSAU         MOCLDY    75  70  83 SE8       30.03
SAN JUAN       PTCLDY    81  75  83 SE3       29.97F
SANTO DOMINGO  PTCLDY    75  72  88 NE5       29.94S
ST. CROIX      CLEAR     79  73  83 NE5       29.98F

$$




USA.gov is the U.S. government's official web portal to all federal, state and local government web resources and services.